| time (UTC) | temp F | wind direction | speed MPH | gust MPH | rain 1hr in | rain 24hr in | rain mn in | humidity % | barometer mb |
| 20260903060009 | 61 | 135 | 1.0 | 4.0 | 0.00 | 0.00 | 0.00 | 93 | 1017.6 |
| 20260903054510 | 61 | 169 | 0.0 | 2.0 | 0.00 | 0.00 | 0.00 | 94 | 1017.8 |
| 20260903053008 | 61 | 38 | 0.0 | 1.0 | 0.00 | 0.00 | 0.00 | 94 | 1018.0 |
| 20260903051508 | 61 | 139 | 0.0 | 2.0 | 0.00 | 0.00 | 0.00 | 94 | 1017.9 |
| 20260903050007 | 61 | 70 | 0.0 | 2.0 | 0.00 | 0.00 | 0.00 | 94 | 1017.7 |
| 20260903044507 | 61 | 229 | 0.0 | 3.0 | 0.00 | 0.00 | 0.00 | 94 | 1017.6 |
| 20260903043005 | 61 | 108 | 1.0 | 3.0 | 0.00 | 0.00 | 0.00 | 94 | 1017.9 |
| 20260903041505 | 61 | 207 | 0.0 | 1.0 | 0.00 | 0.00 | 0.00 | 93 | 1018.1 |
| 20260903040002 | 61 | 230 | 0.0 | 2.0 | 0.00 | 0.00 | 0.00 | 93 | 1018.3 |
| 20260903034502 | 61 | 242 | 0.0 | 1.0 | 0.00 | 0.00 | 0.00 | 93 | 1018.2 |
| 20260903033059 | 61 | 160 | 0.0 | 2.0 | 0.00 | 0.00 | 0.00 | 93 | 1018.4 |
| 20260903031555 | 61 | 124 | 0.0 | 1.0 | 0.00 | 0.00 | 0.00 | 93 | 1018.8 |
| 20260903030055 | 62 | 147 | 0.0 | 0.0 | 0.00 | 0.00 | 0.00 | 93 | 1019.0 |
| 20260903024555 | 62 | 174 | 0.0 | 0.0 | 0.00 | 0.00 | 0.00 | 92 | 1018.9 |
| 20260903023054 | 62 | 233 | 0.0 | 2.0 | 0.00 | 0.00 | 0.00 | 92 | 1019.0 |
| 20260903021554 | 62 | 221 | 0.0 | 2.0 | 0.00 | 0.00 | 0.00 | 92 | 1019.2 |
| 20260903020054 | 62 | 226 | 0.0 | 2.0 | 0.00 | 0.00 | 0.00 | 92 | 1019.3 |
| 20260903014554 | 62 | 79 | 0.0 | 4.0 | 0.00 | 0.00 | 0.00 | 92 | 1019.3 |
| 20260903013053 | 62 | 207 | 0.0 | 3.0 | 0.00 | 0.00 | 0.00 | 93 | 1019.6 |
| 20260903011603 | 62 | 111 | 0.0 | 5.0 | 0.00 | 0.00 | 0.00 | 94 | 1019.4 |
| 20260903010051 | 62 | 147 | 0.0 | 6.0 | 0.00 | 0.00 | 0.00 | 95 | 1018.9 |
| 20260903004551 | 63 | 105 | 0.0 | 5.0 | 0.00 | 0.00 | 0.00 | 94 | 1018.8 |
| 20260903003049 | 63 | 301 | 0.0 | 4.0 | 0.00 | 0.00 | 0.00 | 93 | 1019.1 |
| 20260903001548 | 63 | 204 | 0.0 | 2.0 | 0.00 | 0.00 | 0.00 | 92 | 1019.1 |
| 20260903000047 | 64 | 166 | 0.0 | 2.0 | 0.00 | 0.00 | 0.00 | 91 | 1019.2 |
| 20260902234547 | 64 | 97 | 0.0 | 3.0 | 0.00 | 0.00 | 0.00 | 90 | 1019.4 |
| 20260902233054 | 64 | 208 | 0.0 | 2.0 | 0.00 | 0.00 | 0.00 | 89 | 1019.8 |
| 20260902231554 | 65 | 165 | 0.0 | 2.0 | 0.00 | 0.00 | 0.00 | 89 | 1020.2 |
| 20260902230043 | 65 | 124 | 0.0 | 2.0 | 0.00 | 0.00 | 0.00 | 88 | 1020.3 |
| 20260902224552 | 65 | 186 | 0.0 | 4.0 | 0.00 | 0.03 | 0.00 | 86 | 1020.2 |
| 20260902223043 | 66 | 252 | 0.0 | 3.0 | 0.00 | 0.03 | 0.00 | 86 | 1020.2 |
| 20260902221548 | 66 | 252 | 0.0 | 2.0 | 0.00 | 0.03 | 0.00 | 85 | 1020.5 |
| 20260902220041 | 67 | 204 | 0.0 | 8.0 | 0.00 | 0.03 | 0.00 | 83 | 1020.5 |
| 20260902214541 | 67 | 281 | 0.0 | 3.0 | 0.00 | 0.03 | 0.00 | 83 | 1020.5 |
| 20260902213051 | 67 | 151 | 1.0 | 7.0 | 0.00 | 0.03 | 0.00 | 82 | 1020.1 |
| 20260902211547 | 68 | 112 | 0.0 | 2.0 | 0.00 | 0.03 | 0.00 | 81 | 1020.3 |
| 20260902210039 | 68 | 210 | 0.0 | 5.0 | 0.00 | 0.03 | 0.00 | 80 | 1020.4 |
| 20260902204540 | 68 | 129 | 0.0 | 5.0 | 0.00 | 0.03 | 0.00 | 79 | 1020.2 |
| 20260902203038 | 69 | 160 | 1.0 | 6.0 | 0.00 | 0.03 | 0.00 | 80 | 1020.4 |
| 20260902201539 | 70 | 262 | 1.0 | 7.0 | 0.00 | 0.03 | 0.00 | 79 | 1020.5 |
| 20260902200036 | 70 | 263 | 1.0 | 5.0 | 0.00 | 0.03 | 0.00 | 79 | 1020.8 |
| 20260902194540 | 69 | 116 | 0.0 | 5.0 | 0.00 | 0.03 | 0.00 | 81 | 1020.9 |
| 20260902193038 | 69 | 267 | 0.0 | 4.0 | 0.00 | 0.03 | 0.00 | 81 | 1021.1 |
| 20260902191537 | 70 | 19 | 0.0 | 7.0 | 0.00 | 0.03 | 0.00 | 81 | 1021.1 |
| 20260902190032 | 70 | 214 | 1.0 | 3.0 | 0.00 | 0.03 | 0.00 | 82 | 1021.3 |
| 20260902184531 | 69 | 171 | 0.0 | 4.0 | 0.00 | 0.04 | 0.00 | 83 | 1021.4 |
| 20260902183031 | 69 | 246 | 0.0 | 4.0 | 0.00 | 0.04 | 0.00 | 83 | 1021.2 |
| 20260902181530 | 68 | 235 | 0.0 | 5.0 | 0.00 | 0.04 | 0.00 | 84 | 1021.2 |
| 20260902180031 | 68 | 58 | 1.0 | 6.0 | 0.00 | 0.04 | 0.00 | 82 | 1021.3 |
| 20260902174529 | 68 | 231 | 1.0 | 4.0 | 0.00 | 0.04 | 0.00 | 81 | 1021.3 |
| 20260902173029 | 69 | 267 | 0.0 | 7.0 | 0.00 | 0.04 | 0.00 | 83 | 1021.3 |
| 20260902171527 | 69 | 257 | 1.0 | 6.0 | 0.00 | 0.04 | 0.00 | 82 | 1021.2 |
| 20260902170025 | 69 | 213 | 0.0 | 3.0 | 0.00 | 0.04 | 0.00 | 82 | 1021.4 |
| 20260902164526 | 68 | 207 | 1.0 | 5.0 | 0.00 | 0.07 | 0.00 | 83 | 1021.6 |
| 20260902163023 | 68 | 166 | 0.0 | 6.0 | 0.00 | 0.07 | 0.00 | 83 | 1021.8 |
| 20260902161522 | 68 | 94 | 0.0 | 3.0 | 0.00 | 0.07 | 0.00 | 85 | 1021.8 |
| 20260902160020 | 67 | 268 | 0.0 | 3.0 | 0.00 | 0.07 | 0.00 | 85 | 1022.1 |
| 20260902154527 | 67 | 131 | 0.0 | 4.0 | 0.00 | 0.07 | 0.00 | 87 | 1022.4 |
| 20260902153017 | 67 | 250 | 0.0 | 5.0 | 0.00 | 0.07 | 0.00 | 86 | 1022.5 |
| 20260902151515 | 67 | 108 | 0.0 | 3.0 | 0.00 | 0.07 | 0.00 | 88 | 1022.4 |
| 20260902150013 | 66 | 166 | 1.0 | 5.0 | 0.00 | 0.07 | 0.00 | 89 | 1022.4 |
| 20260902144525 | 65 | 74 | 0.0 | 3.0 | 0.00 | 0.08 | 0.00 | 91 | 1022.7 |
| 20260902143013 | 65 | 100 | 1.0 | 4.0 | 0.00 | 0.08 | 0.00 | 92 | 1022.6 |
| 20260902141509 | 64 | 98 | 0.0 | 3.0 | 0.00 | 0.08 | 0.00 | 94 | 1022.3 |
| 20260902134601 | 63 | 143 | 0.0 | 3.0 | 0.00 | 0.15 | 0.00 | 95 | 1021.8 |
| 20260902133057 | 63 | 129 | 0.0 | 3.0 | 0.00 | 0.15 | 0.00 | 97 | 1021.7 |
| 20260902131554 | 62 | 141 | 0.0 | 4.0 | 0.00 | 0.15 | 0.00 | 98 | 1021.7 |
| 20260902130058 | 62 | 134 | 0.0 | 1.0 | 0.00 | 0.15 | 0.00 | 99 | 1022.0 |
| 20260902124550 | 61 | 232 | 0.0 | 2.0 | 0.00 | 0.38 | 0.00 | 99 | 1022.0 |
| 20260902123056 | 61 | 266 | 0.0 | 2.0 | 0.00 | 0.38 | 0.00 | 99 | 1021.9 |
| 20260902121551 | 60 | 113 | 0.0 | 2.0 | 0.00 | 0.38 | 0.00 | 99 | 1021.9 |
| 20260902120045 | 60 | 158 | 0.0 | 1.0 | 0.00 | 0.38 | 0.00 | 99 | 1021.7 |
| 20260902114545 | 60 | 160 | 0.0 | 0.0 | 0.00 | 0.49 | 0.00 | 100 | 1022.1 |
| 20260902113047 | 59 | 160 | 0.0 | 0.0 | 0.00 | 0.49 | 0.00 | 99 | 1022.1 |
| 20260902111548 | 59 | 157 | 0.0 | 0.0 | 0.00 | 0.49 | 0.00 | 99 | 1022.2 |
| 20260902110046 | 59 | 157 | 0.0 | 0.0 | 0.00 | 0.49 | 0.00 | 99 | 1021.9 |
| 20260902104550 | 59 | 157 | 0.0 | 0.0 | 0.00 | 0.49 | 0.00 | 99 | 1021.8 |
| 20260902103040 | 59 | 157 | 0.0 | 0.0 | 0.00 | 0.49 | 0.00 | 99 | 1021.4 |
| 20260902101534 | 59 | 157 | 0.0 | 0.0 | 0.00 | 0.49 | 0.00 | 99 | 1021.3 |
| 20260902100033 | 59 | 157 | 0.0 | 0.0 | 0.00 | 0.49 | 0.00 | 99 | 1021.3 |
| 20260902094533 | 59 | 157 | 0.0 | 0.0 | 0.00 | 0.49 | 0.00 | 99 | 1021.2 |
| 20260902093032 | 60 | 157 | 0.0 | 0.0 | 0.00 | 0.49 | 0.00 | 99 | 1021.0 |
| 20260902091531 | 60 | 151 | 0.0 | 0.0 | 0.00 | 0.49 | 0.00 | 99 | 1020.9 |
| 20260902090031 | 60 | 151 | 0.0 | 0.0 | 0.00 | 0.49 | 0.00 | 99 | 1020.9 |
| 20260902084530 | 60 | 236 | 0.0 | 0.0 | 0.00 | 0.49 | 0.00 | 99 | 1020.9 |
| 20260902083030 | 60 | 236 | 0.0 | 0.0 | 0.00 | 0.49 | 0.00 | 99 | 1020.8 |
| 20260902081529 | 60 | 236 | 0.0 | 0.0 | 0.00 | 0.49 | 0.00 | 99 | 1020.8 |
| 20260902080029 | 60 | 236 | 0.0 | 0.0 | 0.00 | 0.49 | 0.00 | 99 | 1020.9 |
| 20260902074528 | 59 | 236 | 0.0 | 0.0 | 0.00 | 0.49 | 0.00 | 99 | 1021.0 |
| 20260902073029 | 59 | 236 | 0.0 | 0.0 | 0.00 | 0.49 | 0.00 | 99 | 1021.1 |
| 20260902071527 | 59 | 236 | 0.0 | 0.0 | 0.00 | 0.49 | 0.00 | 99 | 1021.2 |
| 20260902070025 | 59 | 236 | 0.0 | 0.0 | 0.00 | 0.49 | 0.00 | 99 | 1021.0 |
| 20260902064526 | 60 | 236 | 0.0 | 0.0 | 0.00 | 0.49 | 0.00 | 99 | 1020.9 |
| 20260902063024 | 60 | 236 | 0.0 | 0.0 | 0.00 | 0.49 | 0.00 | 99 | 1020.7 |
| 20260902061523 | 60 | 236 | 0.0 | 0.0 | 0.00 | 0.49 | 0.00 | 99 | 1020.8 |